K5LRY-13 Weather Reports


Display with metric or nautical units.
time (UTC)temp
F
wind
direction
speed
MPH
gust
MPH
rain 1hr
in
rain 24hr
in
rain mn
in
humidity
%
barometer
mb
20260510153323 61 271 2.0 10.0 0.00 0.00 0.00 16 1029.5
20260510151836 59 235 7.0 12.0 0.00 0.00 0.00 16 1029.4
20260510150335 57 188 5.0 8.0 0.00 0.00 0.00 22 1029.0
20260510144822 55 283 1.0 7.0 0.00 0.00 0.00 27 1028.9
20260510143317 52 293 0.0 2.0 0.00 0.00 0.00 34 1028.5
20260510141830 47 294 2.0 4.0 0.00 0.00 0.00 43 1028.1
20260510140325 41 295 0.0 0.0 0.00 0.00 0.00 57 1028.4
20260510134819 39 295 0.0 0.0 0.00 0.00 0.00 64 1028.1
20260510133319 38 295 0.0 0.0 0.00 0.00 0.00 66 1028.0
20260510131847 37 295 0.0 0.0 0.00 0.00 0.00 66 1027.8
20260510130324 37 295 0.0 0.0 0.00 0.00 0.00 63 1027.7
20260510124818 37 295 0.0 0.0 0.00 0.00 0.00 64 1027.3
20260510123335 37 295 0.0 0.0 0.00 0.00 0.00 60 1027.3
20260510121828 37 295 0.0 0.0 0.00 0.00 0.00 59 1027.3
20260510120322 37 295 0.0 0.0 0.00 0.00 0.00 59 1027.2
20260510114816 38 295 0.0 0.0 0.00 0.00 0.00 57 1026.9
20260510113333 38 295 0.0 1.0 0.00 0.00 0.00 55 1027.1
20260510111825 39 295 0.0 3.0 0.00 0.00 0.00 54 1027.2
20260510110320 40 295 0.0 0.0 0.00 0.00 0.00 53 1027.1
20260510104824 40 295 0.0 0.0 0.00 0.00 0.00 51 1027.1
20260510103320 41 295 0.0 0.0 0.00 0.00 0.00 46 1027.0
20260510101833 42 295 0.0 0.0 0.00 0.00 0.00 45 1026.9
20260510100327 43 295 0.0 0.0 0.00 0.00 0.00 44 1026.8
20260510094842 45 295 0.0 0.0 0.00 0.00 0.00 41 1026.8
20260510093337 46 295 0.0 0.0 0.00 0.00 0.00 39 1026.8
20260510091835 47 295 0.0 2.0 0.00 0.00 0.00 37 1026.6
20260510090322 49 295 0.0 3.0 0.00 0.00 0.00 32 1026.4
20260510084817 51 295 0.0 0.0 0.00 0.00 0.00 29 1026.4
20260510083313 53 295 0.0 2.0 0.00 0.00 0.00 25 1026.4
20260510081833 54 330 1.0 4.0 0.00 0.00 0.00 23 1026.5
20260510080319 50 166 3.0 8.0 0.00 0.00 0.00 27 1026.4
20260510074814 48 133 0.0 7.0 0.00 0.00 0.00 35 1026.4
20260510073330 47 106 0.0 1.0 0.00 0.00 0.00 36 1026.5
20260510071823 48 106 0.0 2.0 0.00 0.00 0.00 34 1026.5
20260510070316 49 106 0.0 4.0 0.00 0.00 0.00 31 1026.5
20260510064831 51 106 1.0 6.0 0.00 0.00 0.00 27 1026.3
20260510063327 52 74 3.0 6.0 0.00 0.00 0.00 27 1026.1
20260510061819 53 74 3.0 9.0 0.00 0.00 0.00 25 1026.0
20260510060322 53 50 3.0 11.0 0.00 0.00 0.00 27 1026.0
20260510054821 51 129 3.0 7.0 0.00 0.00 0.00 28 1026.2
20260510053338 51 149 3.0 6.0 0.00 0.00 0.00 28 1026.1
20260510051838 52 149 1.0 7.0 0.00 0.00 0.00 27 1026.0
20260510050336 53 160 2.0 5.0 0.00 0.00 0.00 27 1025.8
20260510044838 55 160 1.0 7.0 0.00 0.00 0.00 25 1026.1
20260510043321 56 135 2.0 8.0 0.00 0.00 0.00 24 1026.1
20260510041834 56 220 1.0 17.0 0.00 0.00 0.00 23 1026.1
20260510040328 56 87 4.0 8.0 0.00 0.00 0.00 24 1025.9
20260510034822 56 54 3.0 6.0 0.00 0.00 0.00 23 1025.5
20260510033338 58 46 1.0 4.0 0.00 0.00 0.00 23 1025.5
20260510031824 58 82 4.0 8.0 0.00 0.00 0.00 21 1025.4
20260510030345 59 135 2.0 14.0 0.00 0.00 0.00 20 1025.4
20260510024839 60 183 2.0 6.0 0.00 0.00 0.00 20 1025.2
20260510023314 60 165 5.0 11.0 0.00 0.00 0.00 18 1025.1
20260510021827 61 163 4.0 10.0 0.00 0.00 0.00 17 1025.0
20260510020342 62 182 4.0 10.0 0.00 0.00 0.00 15 1024.9
20260510014815 63 188 1.0 10.0 0.00 0.00 0.00 12 1024.7
20260510013331 64 241 4.0 13.0 0.00 0.00 0.00 12 1024.5
20260510011824 66 301 5.0 10.0 0.00 0.00 0.00 12 1024.4
20260510010317 67 219 5.0 10.0 0.00 0.00 0.00 11 1024.4
20260510004811 69 256 5.0 13.0 0.00 0.00 0.00 11 1024.3
20260510003326 70 275 6.0 18.0 0.00 0.00 0.00 11 1024.3
20260510001812 69 274 6.0 18.0 0.00 0.00 0.00 11 1024.6
20260510000328 69 297 6.0 12.0 0.00 0.00 0.00 10 1024.6
20260509234822 68 213 3.0 11.0 0.00 0.00 0.00 12 1024.6
20260509233338 70 285 5.0 11.0 0.00 0.00 0.00 11 1024.8
20260509231836 70 254 7.0 24.0 0.00 0.00 0.00 13 1024.9
20260509230311 68 276 6.0 18.0 0.00 0.00 0.00 12 1024.9
20260509224825 69 276 9.0 23.0 0.00 0.00 0.00 11 1024.9
20260509223325 70 220 7.0 19.0 0.00 0.00 0.00 10 1025.0
20260509221817 71 221 8.0 17.0 0.00 0.00 0.00 12 1025.4
20260509220333 72 233 6.0 13.0 0.00 0.00 0.00 10 1025.4
20260509214821 72 228 8.0 16.0 0.00 0.00 0.00 11 1025.5
20260509213316 72 172 8.0 16.0 0.00 0.00 0.00 11 1025.8
20260509211830 71 264 10.0 20.0 0.00 0.00 0.00 10 1025.9
20260509210324 71 223 6.0 18.0 0.00 0.00 0.00 12 1025.8
20260509204837 71 253 7.0 14.0 0.00 0.00 0.00 11 1026.1
20260509203331 72 235 4.0 13.0 0.00 0.00 0.00 12 1026.2
20260509201824 72 288 10.0 19.0 0.00 0.00 0.00 11 1026.5
20260509200339 72 257 7.0 22.0 0.00 0.00 0.00 10 1026.9
20260509194812 70 299 6.0 20.0 0.00 0.00 0.00 14 1026.8
20260509193328 69 241 10.0 19.0 0.00 0.00 0.00 11 1027.0
20260509191821 71 278 7.0 18.0 0.00 0.00 0.00 12 1026.6
20260509190314 69 245 9.0 21.0 0.00 0.00 0.00 13 1026.8
20260509184828 69 248 7.0 16.0 0.00 0.00 0.00 13 1026.8
20260509183324 69 287 6.0 15.0 0.00 0.00 0.00 16 1026.7
20260509181818 69 264 8.0 18.0 0.00 0.00 0.00 12 1027.3
20260509180332 68 272 6.0 15.0 0.00 0.00 0.00 17 1027.3
20260509174825 68 186 8.0 17.0 0.00 0.00 0.00 14 1027.3
20260509173320 68 204 7.0 15.0 0.00 0.00 0.00 13 1027.1
20260509171813 68 261 10.0 19.0 0.00 0.00 0.00 14 1027.2
20260509170349 67 174 5.0 10.0 0.00 0.00 0.00 19 1027.2
20260509164822 66 217 5.0 15.0 0.00 0.00 0.00 18 1027.2
20260509163317 66 245 4.0 11.0 0.00 0.00 0.00 19 1027.0
20260509161830 65 232 6.0 17.0 0.00 0.00 0.00 17 1027.1
20260509160318 64 212 4.0 10.0 0.00 0.00 0.00 21 1027.0
20260509154812 63 182 4.0 9.0 0.00 0.00 0.00 21 1026.9